Berlin, NH

3:52 AM EDT on May 23, 2017 (GMT -0400)
Berlin Municipal

Weather History for KBML - October, 2013

Change the Weather History Date:

Saturday, October 5, 2013

  Actual Average Record
Temperature  
Mean Temperature 54 °F -  
Max Temperature 66 °F 58 °F 82 °F (2005)
Min Temperature 42 °F 31 °F 18 °F (1996)
Degree Days  
Heating Degree Days 12    
Growing Degree Days 4 (Base 50)    
Moisture  
Dew Point 44 °F    
Average Humidity 73    
Maximum Humidity 93    
Minimum Humidity 41    
Precipitation  
Precipitation 0.00 in - - ()
Sea Level Pressure  
Sea Level Pressure 30.13 in    
Wind  
Wind Speed 0 mph (West)    
Max Wind Speed 6 mph    
Max Gust Speed -    
Visibility 10 miles    
Events Rain    
Averages and records for this station are not official NWS values.
T = Trace of Precipitation, MM = Missing Value Source: NWS Daily Summary

Daily Weather History Graph

Daily Weather History Graph

Search for Another Location

Airport or City:

Trip Planner

Search our weather history database for the weather conditions in past years. The results will help you decide how hot, cold, wet, or windy it might be!

Date:

Astronomy

Oct. 05, 2013 Rise Set
Actual Time 6:47 AM EDT 6:17 PM EDT
Civil Twilight 6:18 AM EDT 6:46 PM EDT
Nautical Twilight 5:44 AM EDT 7:20 PM EDT
Astronomical Twilight 5:10 AM EDT 7:54 PM EDT
Moon 7:26 AM EDT (10/5) 6:30 PM EDT (10/5)
Length of Visible Light 12h 28m
Length of Day
11h 29m
New Moon, 0% of the Moon is Illuminated
Oct 5
New Moon
Oct 11
First Quarter
Oct 18
Full
Oct 26
Last Quarter
Nov 3
New

Hourly Weather History & Observations

Time (EDT) Temp. Dew Point Humidity Pressure Visibility Wind Dir Wind Speed Gust Speed Precip Events Conditions
12:52 AM 51.1 °F 48.0 °F 89% 30.12 in 10.0 mi Calm Calm - N/A   Overcast
1:52 AM 52.0 °F 46.9 °F 83% 30.12 in 10.0 mi Calm Calm - 0.00 in Rain Light Rain
2:52 AM 51.1 °F 46.9 °F 86% 30.11 in 10.0 mi Calm Calm - 0.00 in   Overcast
3:52 AM 51.1 °F 48.0 °F 89% 30.11 in 10.0 mi Calm Calm - N/A   Overcast
4:52 AM 51.1 °F 48.0 °F 89% 30.12 in 10.0 mi Calm Calm - N/A   Overcast
5:52 AM 51.1 °F 48.0 °F 89% 30.13 in 10.0 mi Calm Calm - N/A   Overcast
6:52 AM 51.1 °F 48.0 °F 89% 30.14 in 10.0 mi Calm Calm - N/A   Overcast
7:52 AM 51.1 °F 48.9 °F 92% 30.15 in 10.0 mi Calm Calm - N/A   Overcast
8:52 AM 52.0 °F 48.0 °F 86% 30.15 in 10.0 mi Calm Calm - 0.00 in   Overcast
9:52 AM 55.0 °F 48.0 °F 77% 30.14 in 10.0 mi Calm Calm - N/A   Overcast
10:52 AM 57.9 °F 46.9 °F 67% 30.14 in 10.0 mi Calm Calm - N/A   Overcast
11:52 AM 61.0 °F 48.0 °F 62% 30.13 in 10.0 mi Calm Calm - N/A   Overcast
12:52 PM 63.0 °F 48.0 °F 58% 30.12 in 10.0 mi Calm Calm - N/A   Overcast
1:52 PM 64.0 °F 42.1 °F 45% 30.10 in 10.0 mi Calm Calm - N/A   Overcast
2:52 PM 64.0 °F 41.0 °F 43% 30.09 in 10.0 mi WSW 5.8 mph - N/A   Overcast
3:52 PM 64.0 °F 41.0 °F 43% 30.09 in 10.0 mi West 4.6 mph - N/A   Overcast
4:52 PM 64.0 °F 42.1 °F 45% 30.09 in 10.0 mi Calm Calm - N/A   Overcast
5:52 PM 62.1 °F 37.9 °F 41% 30.11 in 10.0 mi NNW 4.6 mph - N/A   Mostly Cloudy
6:52 PM 55.9 °F 41.0 °F 57% 30.12 in 10.0 mi Calm Calm - N/A   Overcast
7:52 PM 48.9 °F 39.9 °F 71% 30.14 in 10.0 mi Calm Calm - N/A   Clear
8:52 PM 43.0 °F 41.0 °F 93% 30.15 in 10.0 mi Calm Calm - N/A   Clear
9:52 PM 43.0 °F 39.9 °F 89% 30.18 in 10.0 mi Calm Calm - N/A   Clear
10:52 PM 43.0 °F 39.9 °F 89% 30.19 in 10.0 mi Calm Calm - N/A   Clear
11:52 PM 42.1 °F 39.9 °F 92% 30.19 in 10.0 mi Calm Calm - N/A   Clear